QPF
0.04 0.04 0.07 0.07 0.03 0.02 0.02 0.03 0.03 0.04 0.04 0.01 0.02 0.04 0.06 0.08 0.08 0.07 0.05 0.02 0.00 0.00 0.01 0.02 0.04 0.04 0.03 0.04 0.05 0.05 0.05 0.05 0.03 0.02 0.01 0.01 0.01 0.00 0.00 0.00 0.00 0.00 0.00 0.00 0.01 0.01 0.00 0.00 0.01
0.02 0.06 0.12 0.05 0.02 0.02 0.03 0.05 0.06 0.04 0.02 0.01 0.02 0.03 0.03 0.02 0.03 0.07 0.11 0.05 0.01 0.00 0.02 0.04 0.06 0.07 0.07 0.07 0.08 0.07 0.07 0.07 0.05 0.04 0.03 0.02 0.02 0.01 0.00 0.00 0.00 0.00 0.00 0.00 0.01 0.01 0.01 0.00 0.00
0.03 0.06 0.07 0.03 0.03 0.04 0.07 0.06 0.04 0.02 0.01 0.01 0.02 0.03 0.05 0.04 0.08 0.13 0.16 0.07 0.02 0.02 0.04 0.08 0.12 0.12 0.12 0.12 0.12 0.12 0.11 0.10 0.10 0.08 0.06 0.04 0.03 0.03 0.02 0.01 0.00 0.00 0.00 0.00 0.00 0.01 0.01 0.01 0.00
0.04 0.04 0.02 0.03 0.06 0.08 0.09 0.06 0.03 0.03 0.02 0.01 0.01 0.02 0.03 0.04 0.09 0.16 0.15 0.06 0.05 0.06 0.08 0.12 0.16 0.16 0.16 0.16 0.16 0.15 0.14 0.14 0.15 0.15 0.12 0.10 0.07 0.06 0.04 0.02 0.01 0.01 0.01 0.01 0.00 0.01 0.01 0.01 0.00
0.02 0.03 0.04 0.06 0.10 0.09 0.04 0.03 0.02 0.04 0.04 0.01 0.02 0.04 0.03 0.05 0.12 0.14 0.10 0.05 0.06 0.08 0.09 0.11 0.15 0.15 0.16 0.16 0.15 0.16 0.17 0.18 0.19 0.17 0.15 0.14 0.13 0.10 0.07 0.05 0.03 0.02 0.02 0.01 0.01 0.01 0.01 0.01 0.01
0.02 0.02 0.03 0.05 0.08 0.08 0.05 0.02 0.02 0.04 0.05 0.03 0.03 0.06 0.06 0.05 0.07 0.10 0.09 0.06 0.07 0.07 0.07 0.08 0.10 0.12 0.14 0.16 0.16 0.16 0.18 0.18 0.18 0.18 0.17 0.16 0.14 0.14 0.11 0.09 0.07 0.05 0.03 0.02 0.01 0.01 0.01 0.01 0.01
0.02 0.02 0.03 0.02 0.06 0.09 0.05 0.02 0.03 0.05 0.07 0.04 0.03 0.08 0.07 0.05 0.05 0.08 0.10 0.10 0.11 0.10 0.11 0.11 0.10 0.12 0.11 0.12 0.16 0.18 0.19 0.19 0.18 0.18 0.17 0.16 0.16 0.16 0.14 0.13 0.10 0.08 0.06 0.04 0.02 0.02 0.01 0.01 0.01
0.01 0.01 0.02 0.03 0.05 0.07 0.03 0.01 0.01 0.02 0.02 0.01 0.02 0.03 0.03 0.02 0.05 0.08 0.12 0.11 0.11 0.12 0.13 0.13 0.17 0.16 0.13 0.10 0.12 0.17 0.20 0.20 0.19 0.18 0.17 0.18 0.17 0.15 0.16 0.13 0.11 0.09 0.08 0.07 0.05 0.03 0.02 0.01 0.01
0.01 0.02 0.03 0.03 0.03 0.04 0.01 0.01 0.01 0.00 0.01 0.01 0.00 0.00 0.00 0.01 0.03 0.06 0.09 0.09 0.10 0.13 0.13 0.14 0.14 0.15 0.16 0.13 0.13 0.14 0.18 0.22 0.21 0.19 0.20 0.21 0.18 0.18 0.17 0.13 0.14 0.12 0.12 0.11 0.10 0.06 0.03 0.02 0.01
0.01 0.02 0.02 0.01 0.01 0.01 0.01 0.01 0.00 0.00 0.00 0.00 0.00 0.00 0.00 0.00 0.01 0.02 0.03 0.04 0.05 0.07 0.09 0.10 0.13 0.12 0.11 0.13 0.14 0.14 0.15 0.18 0.19 0.20 0.22 0.21 0.22 0.21 0.16 0.15 0.16 0.16 0.18 0.18 0.15 0.11 0.06 0.03 0.02
0.01 0.02 0.01 0.01 0.00 0.00 0.00 0.01 0.01 0.01 0.01 0.00 0.00 0.00 0.00 0.00 0.00 0.00 0.00 0.00 0.01 0.01 0.02 0.02 0.04 0.05 0.05 0.05 0.07 0.09 0.11 0.12 0.14 0.17 0.20 0.20 0.23 0.24 0.21 0.18 0.15 0.17 0.19 0.18 0.17 0.15 0.10 0.06 0.03
0.01 0.00 0.00 0.00 0.00 0.00 0.01 0.01 0.00 0.00 0.01 0.00 0.00 0.00 0.00 0.00 0.00 0.00 0.00 0.00 0.00 0.00 0.01 0.01 0.01 0.02 0.03 0.02 0.02 0.05 0.07 0.08 0.09 0.12 0.15 0.18 0.19 0.20 0.21 0.20 0.18 0.19 0.19 0.22 0.23 0.19 0.12 0.07 0.04
0.01 0.01 0.00 0.00 0.01 0.00 0.00 0.00 0.00 0.00 0.00 0.00 0.00 0.00 0.00 0.00 0.00 0.00 0.00 0.00 0.00 0.00 0.00 0.00 0.00 0.00 0.00 0.01 0.01 0.02 0.03 0.05 0.06 0.08 0.10 0.11 0.12 0.16 0.16 0.14 0.15 0.16 0.18 0.21 0.23 0.20 0.15 0.11 0.07
0.01 0.00 0.00 0.01 0.01 0.00 0.00 0.00 0.00 0.00 0.00 0.00 0.00 0.00 0.00 0.00 0.00 0.00 0.00 0.00 0.00 0.00 0.00 0.00 0.00 0.00 0.00 0.00 0.00 0.00 0.01 0.02 0.02 0.03 0.05 0.06 0.06 0.10 0.15 0.13 0.12 0.14 0.17 0.18 0.22 0.22 0.18 0.13 0.09
0.01 0.01 0.01 0.00 0.00 0.00 0.00 0.00 0.00 0.00 0.00 0.00 0.00 0.00 0.00 0.00 0.00 0.00 0.00 0.00 0.00 0.00 0.00 0.00 0.00 0.00 0.00 0.00 0.00 0.00 0.00 0.00 0.01 0.02 0.03 0.03 0.04 0.05 0.08 0.11 0.13 0.13 0.16 0.17 0.19 0.20 0.18 0.12 0.07
0.01 0.02 0.02 0.00 0.00 0.00 0.00 0.01 0.00 0.00 0.00 0.00 0.00 0.00 0.00 0.00 0.00 0.00 0.00 0.00 0.00 0.00 0.00 0.00 0.00 0.00 0.00 0.00 0.00 0.00 0.00 0.00 0.00 0.01 0.01 0.01 0.03 0.05 0.06 0.08 0.11 0.13 0.14 0.16 0.19 0.21 0.19 0.13 0.08
0.02 0.02 0.01 0.01 0.00 0.00 0.00 0.00 0.00 0.00 0.00 0.00 0.00 0.00 0.00 0.00 0.00 0.00 0.00 0.00 0.00 0.00 0.00 0.00 0.00 0.00 0.00 0.00 0.00 0.00 0.00 0.00 0.00 0.01 0.01 0.01 0.02 0.03 0.04 0.05 0.06 0.09 0.10 0.11 0.13 0.16 0.16 0.14 0.11
0.01 0.00 0.00 0.01 0.00 0.00 0.00 0.00 0.00 0.00 0.00 0.00 0.00 0.00 0.00 0.00 0.00 0.00 0.00 0.00 0.00 0.00 0.00 0.00 0.00 0.00 0.00 0.00 0.00 0.00 0.00 0.00 0.01 0.01 0.01 0.01 0.01 0.01 0.02 0.02 0.04 0.05 0.06 0.08 0.11 0.14 0.15 0.16 0.17
0.00 0.00 0.00 0.00 0.00 0.00 0.00 0.00 0.00 0.00 0.00 0.00 0.00 0.00 0.00 0.00 0.00 0.00 0.00 0.00 0.00 0.00 0.00 0.00 0.00 0.00 0.00 0.00 0.00 0.01 0.01 0.01 0.01 0.00 0.01 0.01 0.01 0.01 0.02 0.02 0.03 0.03 0.04 0.06 0.10 0.15 0.19 0.16 0.15
0.00 0.00 0.00 0.00 0.00 0.00 0.00 0.00 0.00 0.00 0.00 0.00 0.00 0.00 0.00 0.00 0.00 0.00 0.00 0.00 0.00 0.00 0.00 0.00 0.00 0.00 0.00 0.00 0.00 0.00 0.00 0.01 0.01 0.01 0.01 0.01 0.00 0.01 0.01 0.02 0.03 0.03 0.04 0.05 0.06 0.10 0.13 0.17 0.16
0.00 0.00 0.00 0.00 0.00 0.00 0.00 0.00 0.00 0.00 0.00 0.00 0.00 0.00 0.00 0.00 0.00 0.00 0.00 0.00 0.00 0.00 0.00 0.00 0.00 0.00 0.00 0.00 0.00 0.00 0.00 0.01 0.01 0.01 0.01 0.01 0.00 0.01 0.01 0.01 0.02 0.03 0.03 0.04 0.05 0.07 0.11 0.15 0.17
0.00 0.00 0.00 0.00 0.00 0.00 0.00 0.00 0.00 0.00 0.00 0.00 0.00 0.00 0.00 0.00 0.00 0.00 0.00 0.00 0.00 0.00 0.00 0.00 0.00 0.00 0.00 0.00 0.00 0.00 0.00 0.00 0.00 0.01 0.01 0.01 0.01 0.01 0.01 0.02 0.02 0.03 0.03 0.04 0.04 0.05 0.09 0.14 0.17
0.00 0.00 0.00 0.00 0.00 0.00 0.00 0.00 0.00 0.00 0.00 0.00 0.00 0.00 0.00 0.00 0.00 0.00 0.00 0.00 0.00 0.00 0.00 0.00 0.00 0.00 0.00 0.00 0.00 0.00 0.00 0.01 0.01 0.01 0.01 0.01 0.01 0.02 0.01 0.02 0.02 0.03 0.03 0.03 0.04 0.05 0.07 0.11 0.14
0.00 0.00 0.00 0.00 0.00 0.00 0.00 0.00 0.00 0.00 0.00 0.00 0.00 0.00 0.00 0.00 0.00 0.00 0.00 0.00 0.00 0.00 0.00 0.00 0.00 0.00 0.00 0.00 0.00 0.00 0.00 0.00 0.01 0.00 0.01 0.01 0.01 0.02 0.01 0.01 0.02 0.02 0.02 0.03 0.03 0.04 0.05 0.06 0.10
0.00 0.00 0.00 0.00 0.00 0.00 0.00 0.00 0.00 0.00 0.00 0.00 0.00 0.00 0.00 0.00 0.00 0.00 0.00 0.00 0.00 0.00 0.00 0.00 0.00 0.00 0.00 0.00 0.00 0.00 0.00 0.01 0.01 0.01 0.01 0.01 0.01 0.02 0.01 0.01 0.01 0.02 0.02 0.03 0.04 0.04 0.05 0.06 0.08
0.00 0.00 0.00 0.00 0.00 0.00 0.00 0.00 0.00 0.00 0.00 0.00 0.00 0.00 0.00 0.00 0.00 0.00 0.00 0.00 0.00 0.00 0.00 0.00 0.00 0.00 0.00 0.00 0.00 0.00 0.00 0.01 0.02 0.02 0.01 0.02 0.02 0.02 0.01 0.02 0.02 0.02 0.02 0.03 0.04 0.05 0.05 0.07 0.08
0.00 0.00 0.00 0.00 0.00 0.00 0.00 0.00 0.00 0.00 0.00 0.00 0.00 0.00 0.00 0.00 0.00 0.00 0.00 0.00 0.00 0.00 0.00 0.00 0.00 0.00 0.00 0.00 0.00 0.00 0.00 0.00 0.01 0.01 0.01 0.02 0.02 0.02 0.02 0.02 0.01 0.02 0.02 0.03 0.04 0.05 0.05 0.07 0.07
0.00 0.00 0.00 0.00 0.00 0.00 0.00 0.00 0.00 0.00 0.00 0.00 0.00 0.00 0.00 0.00 0.00 0.00 0.00 0.00 0.00 0.00 0.00 0.00 0.00 0.00 0.00 0.00 0.00 0.00 0.00 0.00 0.00 0.00 0.00 0.01 0.01 0.02 0.02 0.02 0.02 0.02 0.02 0.02 0.03 0.04 0.06 0.07 0.06
0.00 0.00 0.00 0.00 0.00 0.00 0.00 0.00 0.00 0.00 0.00 0.00 0.00 0.00 0.00 0.00 0.00 0.00 0.00 0.00 0.00 0.00 0.00 0.00 0.00 0.00 0.00 0.00 0.00 0.00 0.00 0.00 0.00 0.00 0.00 0.01 0.03 0.02 0.02 0.02 0.04 0.03 0.03 0.03 0.03 0.04 0.05 0.06 0.06
0.00 0.00 0.00 0.00 0.00 0.00 0.00 0.00 0.00 0.00 0.00 0.00 0.00 0.00 0.00 0.00 0.00 0.00 0.00 0.00 0.00 0.00 0.00 0.00 0.00 0.00 0.00 0.00 0.00 0.00 0.00 0.00 0.00 0.00 0.00 0.01 0.04 0.03 0.02 0.04 0.03 0.03 0.03 0.02 0.03 0.04 0.04 0.05 0.05
MSLP
1012.69 1013.60 1014.61 1015.61 1016.43 1016.99 1017.23 1017.17 1016.88 1016.49 1016.15 1015.94 1015.93 1016.07 1016.30 1016.52 1016.60 1016.50 1016.19 1015.74 1015.24 1014.80 1014.52 1014.45 1014.58 1014.86 1015.20 1015.50 1015.72 1015.81 1015.81 1015.75 1015.70 1015.71 1015.81 1015.96 1016.15 1016.31 1016.41 1016.42 1016.35 1016.23 1016.10 1016.00 1015.96 1015.98 1016.02 1016.07 1016.08
1012.95 1013.95 1015.04 1016.07 1016.90 1017.42 1017.60 1017.46 1017.10 1016.64 1016.24 1015.99 1015.94 1016.06 1016.28 1016.49 1016.57 1016.48 1016.18 1015.75 1015.26 1014.84 1014.56 1014.49 1014.62 1014.89 1015.22 1015.53 1015.75 1015.86 1015.88 1015.84 1015.81 1015.81 1015.89 1016.01 1016.15 1016.26 1016.31 1016.29 1016.21 1016.10 1015.99 1015.94 1015.95 1016.01 1016.09 1016.15 1016.16
1013.25 1014.33 1015.46 1016.50 1017.31 1017.80 1017.92 1017.73 1017.31 1016.81 1016.37 1016.09 1016.01 1016.11 1016.31 1016.51 1016.60 1016.50 1016.23 1015.82 1015.37 1014.97 1014.71 1014.65 1014.77 1015.02 1015.34 1015.62 1015.83 1015.93 1015.94 1015.90 1015.86 1015.85 1015.89 1015.98 1016.07 1016.14 1016.16 1016.12 1016.04 1015.95 1015.88 1015.88 1015.93 1016.03 1016.15 1016.23 1016.25
1013.57 1014.70 1015.84 1016.86 1017.63 1018.07 1018.15 1017.92 1017.48 1016.97 1016.53 1016.25 1016.16 1016.25 1016.44 1016.62 1016.71 1016.63 1016.38 1016.01 1015.60 1015.24 1015.01 1014.95 1015.07 1015.29 1015.56 1015.80 1015.96 1016.02 1016.00 1015.93 1015.86 1015.83 1015.85 1015.90 1015.97 1016.02 1016.02 1015.98 1015.91 1015.84 1015.82 1015.86 1015.95 1016.09 1016.23 1016.33 1016.35
1013.89 1015.02 1016.14 1017.11 1017.82 1018.20 1018.25 1018.01 1017.59 1017.12 1016.71 1016.46 1016.40 1016.50 1016.68 1016.86 1016.94 1016.87 1016.65 1016.32 1015.95 1015.64 1015.45 1015.40 1015.49 1015.68 1015.88 1016.05 1016.14 1016.13 1016.06 1015.95 1015.85 1015.79 1015.79 1015.83 1015.88 1015.93 1015.93 1015.90 1015.85 1015.82 1015.83 1015.90 1016.02 1016.18 1016.33 1016.43 1016.45
1014.19 1015.29 1016.34 1017.23 1017.86 1018.19 1018.22 1018.00 1017.63 1017.22 1016.90 1016.72 1016.71 1016.83 1017.02 1017.19 1017.27 1017.21 1017.02 1016.73 1016.41 1016.14 1015.98 1015.93 1016.00 1016.13 1016.26 1016.34 1016.34 1016.25 1016.11 1015.95 1015.82 1015.75 1015.75 1015.79 1015.85 1015.90 1015.92 1015.91 1015.88 1015.87 1015.89 1015.98 1016.11 1016.27 1016.41 1016.50 1016.50
1014.48 1015.50 1016.45 1017.23 1017.77 1018.05 1018.07 1017.89 1017.61 1017.31 1017.09 1017.01 1017.07 1017.23 1017.43 1017.61 1017.68 1017.63 1017.45 1017.19 1016.91 1016.68 1016.52 1016.47 1016.50 1016.57 1016.61 1016.60 1016.51 1016.35 1016.15 1015.95 1015.81 1015.73 1015.73 1015.79 1015.87 1015.94 1015.97 1015.97 1015.95 1015.94 1015.97 1016.04 1016.15 1016.29 1016.41 1016.47 1016.45
1014.77 1015.69 1016.51 1017.17 1017.61 1017.84 1017.87 1017.75 1017.56 1017.39 1017.30 1017.32 1017.46 1017.66 1017.88 1018.05 1018.11 1018.05 1017.88 1017.64 1017.38 1017.17 1017.02 1016.95 1016.94 1016.93 1016.90 1016.80 1016.62 1016.40 1016.15 1015.93 1015.78 1015.72 1015.74 1015.82 1015.91 1015.99 1016.04 1016.04 1016.01 1015.98 1015.97 1016.02 1016.09 1016.19 1016.28 1016.31 1016.28
1015.07 1015.88 1016.57 1017.10 1017.46 1017.64 1017.68 1017.63 1017.55 1017.50 1017.54 1017.66 1017.86 1018.10 1018.32 1018.48 1018.52 1018.44 1018.26 1018.02 1017.78 1017.57 1017.42 1017.32 1017.26 1017.18 1017.07 1016.90 1016.66 1016.38 1016.10 1015.88 1015.74 1015.70 1015.74 1015.84 1015.95 1016.03 1016.06 1016.03 1015.97 1015.90 1015.86 1015.85 1015.89 1015.95 1016.00 1016.02 1015.97
1015.39 1016.09 1016.66 1017.08 1017.37 1017.52 1017.58 1017.60 1017.62 1017.68 1017.81 1018.01 1018.26 1018.51 1018.72 1018.84 1018.85 1018.74 1018.55 1018.32 1018.07 1017.86 1017.69 1017.57 1017.45 1017.32 1017.14 1016.90 1016.61 1016.30 1016.01 1015.79 1015.67 1015.65 1015.71 1015.82 1015.92 1015.99 1015.99 1015.92 1015.80 1015.68 1015.58 1015.53 1015.53 1015.56 1015.60 1015.61 1015.57
1015.72 1016.33 1016.81 1017.16 1017.39 1017.53 1017.62 1017.70 1017.79 1017.93 1018.13 1018.37 1018.62 1018.86 1019.03 1019.11 1019.09 1018.95 1018.75 1018.51 1018.27 1018.05 1017.87 1017.71 1017.55 1017.36 1017.12 1016.83 1016.50 1016.17 1015.88 1015.66 1015.56 1015.55 1015.62 1015.73 1015.82 1015.85 1015.80 1015.67 1015.50 1015.32 1015.17 1015.08 1015.05 1015.08 1015.13 1015.16 1015.15
1016.04 1016.60 1017.02 1017.32 1017.54 1017.69 1017.81 1017.93 1018.07 1018.25 1018.46 1018.70 1018.94 1019.13 1019.25 1019.28 1019.22 1019.07 1018.86 1018.62 1018.38 1018.17 1017.98 1017.79 1017.59 1017.35 1017.06 1016.73 1016.37 1016.02 1015.72 1015.52 1015.42 1015.42 1015.48 1015.57 1015.62 1015.61 1015.51 1015.33 1015.10 1014.86 1014.67 1014.56 1014.53 1014.57 1014.65 1014.73 1014.76
1016.33 1016.86 1017.26 1017.56 1017.78 1017.94 1018.09 1018.24 1018.40 1018.59 1018.79 1018.99 1019.17 1019.30 1019.37 1019.35 1019.26 1019.10 1018.90 1018.68 1018.46 1018.26 1018.06 1017.86 1017.62 1017.35 1017.02 1016.64 1016.25 1015.88 1015.58 1015.37 1015.26 1015.26 1015.30 1015.36 1015.38 1015.32 1015.16 1014.93 1014.65 1014.38 1014.17 1014.05 1014.04 1014.11 1014.24 1014.38 1014.48
1016.56 1017.09 1017.50 1017.81 1018.05 1018.25 1018.42 1018.58 1018.74 1018.90 1019.05 1019.19 1019.30 1019.37 1019.38 1019.33 1019.23 1019.08 1018.91 1018.72 1018.53 1018.34 1018.15 1017.94 1017.69 1017.38 1017.01 1016.61 1016.19 1015.80 1015.48 1015.25 1015.13 1015.10 1015.12 1015.14 1015.12 1015.02 1014.82 1014.56 1014.25 1013.96 1013.74 1013.63 1013.64 1013.76 1013.94 1014.15 1014.31
1016.73 1017.26 1017.69 1018.02 1018.30 1018.52 1018.71 1018.87 1019.01 1019.12 1019.22 1019.29 1019.33 1019.34 1019.31 1019.25 1019.16 1019.04 1018.90 1018.75 1018.60 1018.45 1018.27 1018.05 1017.79 1017.46 1017.07 1016.64 1016.20 1015.79 1015.45 1015.20 1015.05 1014.98 1014.96 1014.95 1014.89 1014.76 1014.54 1014.26 1013.94 1013.65 1013.44 1013.34 1013.37 1013.52 1013.75 1014.01 1014.23
1016.84 1017.38 1017.81 1018.18 1018.48 1018.72 1018.92 1019.07 1019.17 1019.24 1019.27 1019.28 1019.26 1019.23 1019.19 1019.13 1019.06 1018.98 1018.89 1018.79 1018.68 1018.54 1018.38 1018.17 1017.90 1017.57 1017.17 1016.74 1016.29 1015.87 1015.50 1015.22 1015.04 1014.93 1014.87 1014.82 1014.74 1014.59 1014.37 1014.08 1013.76 1013.48 1013.26 1013.17 1013.21 1013.37 1013.62 1013.91 1014.18
1016.94 1017.45 1017.88 1018.26 1018.57 1018.83 1019.02 1019.15 1019.22 1019.23 1019.21 1019.17 1019.12 1019.07 1019.03 1018.99 1018.95 1018.92 1018.87 1018.81 1018.72 1018.61 1018.46 1018.26 1018.00 1017.67 1017.29 1016.87 1016.43 1016.01 1015.63 1015.33 1015.11 1014.96 1014.86 1014.78 1014.67 1014.51 1014.29 1014.01 1013.70 1013.42 1013.21 1013.10 1013.12 1013.27 1013.51 1013.80 1014.09
1017.04 1017.51 1017.93 1018.30 1018.61 1018.86 1019.03 1019.13 1019.16 1019.13 1019.07 1018.99 1018.93 1018.88 1018.86 1018.85 1018.85 1018.85 1018.83 1018.79 1018.72 1018.62 1018.47 1018.28 1018.04 1017.74 1017.39 1017.01 1016.60 1016.20 1015.83 1015.51 1015.26 1015.07 1014.93 1014.81 1014.67 1014.50 1014.28 1014.02 1013.72 1013.44 1013.22 1013.08 1013.06 1013.16 1013.36 1013.63 1013.90
1017.18 1017.61 1017.99 1018.34 1018.63 1018.86 1019.00 1019.06 1019.04 1018.97 1018.88 1018.78 1018.71 1018.68 1018.68 1018.71 1018.74 1018.77 1018.76 1018.72 1018.65 1018.53 1018.39 1018.21 1017.99 1017.74 1017.45 1017.12 1016.77 1016.41 1016.06 1015.74 1015.46 1015.24 1015.05 1014.88 1014.72 1014.54 1014.32 1014.06 1013.78 1013.50 1013.25 1013.07 1012.99 1013.02 1013.15 1013.36 1013.60
1017.39 1017.76 1018.11 1018.43 1018.69 1018.87 1018.96 1018.97 1018.90 1018.79 1018.66 1018.56 1018.50 1018.49 1018.52 1018.57 1018.63 1018.66 1018.65 1018.59 1018.50 1018.36 1018.20 1018.03 1017.85 1017.66 1017.44 1017.20 1016.92 1016.62 1016.31 1016.00 1015.70 1015.43 1015.19 1014.98 1014.78 1014.58 1014.36 1014.11 1013.83 1013.54 1013.26 1013.03 1012.88 1012.82 1012.87 1013.00 1013.20
1017.66 1017.99 1018.31 1018.58 1018.80 1018.93 1018.97 1018.91 1018.78 1018.62 1018.46 1018.34 1018.28 1018.28 1018.34 1018.42 1018.49 1018.52 1018.49 1018.41 1018.27 1018.11 1017.94 1017.78 1017.63 1017.50 1017.37 1017.22 1017.04 1016.81 1016.54 1016.24 1015.92 1015.61 1015.32 1015.06 1014.82 1014.59 1014.36 1014.11 1013.83 1013.54 1013.24 1012.97 1012.74 1012.60 1012.54 1012.59 1012.73
1017.96 1018.28 1018.57 1018.82 1018.99 1019.06 1019.02 1018.89 1018.69 1018.46 1018.25 1018.11 1018.04 1018.06 1018.14 1018.23 1018.31 1018.34 1018.29 1018.18 1018.01 1017.82 1017.63 1017.48 1017.37 1017.31 1017.26 1017.20 1017.10 1016.95 1016.72 1016.44 1016.10 1015.75 1015.41 1015.09 1014.80 1014.55 1014.30 1014.06 1013.79 1013.50 1013.19 1012.87 1012.59 1012.36 1012.22 1012.18 1012.24
1018.27 1018.59 1018.87 1019.10 1019.23 1019.23 1019.12 1018.89 1018.60 1018.30 1018.04 1017.86 1017.78 1017.80 1017.89 1018.00 1018.10 1018.12 1018.07 1017.93 1017.74 1017.52 1017.33 1017.18 1017.11 1017.09 1017.11 1017.13 1017.11 1017.02 1016.84 1016.57 1016.22 1015.83 1015.44 1015.07 1014.74 1014.45 1014.19 1013.95 1013.69 1013.41 1013.10 1012.77 1012.44 1012.14 1011.92 1011.79 1011.77
1018.54 1018.88 1019.17 1019.38 1019.47 1019.41 1019.21 1018.90 1018.51 1018.13 1017.80 1017.58 1017.48 1017.50 1017.60 1017.73 1017.84 1017.88 1017.83 1017.69 1017.48 1017.26 1017.06 1016.92 1016.86 1016.88 1016.95 1017.02 1017.06 1017.02 1016.87 1016.61 1016.25 1015.84 1015.40 1014.99 1014.62 1014.31 1014.04 1013.81 1013.57 1013.30 1013.00 1012.66 1012.30 1011.95 1011.65 1011.43 1011.32
1018.75 1019.12 1019.42 1019.62 1019.67 1019.55 1019.27 1018.86 1018.39 1017.92 1017.53 1017.26 1017.13 1017.14 1017.26 1017.41 1017.55 1017.61 1017.58 1017.46 1017.26 1017.04 1016.83 1016.69 1016.64 1016.67 1016.76 1016.87 1016.94 1016.92 1016.80 1016.55 1016.19 1015.76 1015.31 1014.87 1014.48 1014.15 1013.88 1013.65 1013.43 1013.18 1012.89 1012.55 1012.17 1011.77 1011.40 1011.09 1010.89
1018.88 1019.27 1019.59 1019.78 1019.79 1019.62 1019.27 1018.78 1018.22 1017.68 1017.22 1016.91 1016.76 1016.77 1016.89 1017.07 1017.24 1017.34 1017.34 1017.24 1017.06 1016.85 1016.64 1016.50 1016.43 1016.46 1016.55 1016.66 1016.74 1016.74 1016.63 1016.40 1016.05 1015.63 1015.17 1014.72 1014.32 1013.99 1013.72 1013.50 1013.29 1013.05 1012.77 1012.43 1012.02 1011.59 1011.15 1010.76 1010.46
1018.92 1019.34 1019.66 1019.84 1019.82 1019.60 1019.19 1018.64 1018.02 1017.42 1016.91 1016.56 1016.38 1016.38 1016.51 1016.71 1016.91 1017.05 1017.09 1017.03 1016.87 1016.67 1016.46 1016.31 1016.23 1016.23 1016.30 1016.39 1016.47 1016.48 1016.38 1016.17 1015.85 1015.45 1015.02 1014.58 1014.19 1013.86 1013.59 1013.37 1013.16 1012.93 1012.64 1012.29 1011.86 1011.38 1010.88 1010.41 1010.02
1018.90 1019.32 1019.63 1019.79 1019.74 1019.48 1019.03 1018.44 1017.78 1017.14 1016.61 1016.23 1016.04 1016.03 1016.16 1016.37 1016.59 1016.75 1016.82 1016.79 1016.66 1016.47 1016.27 1016.10 1015.99 1015.97 1016.00 1016.08 1016.14 1016.15 1016.08 1015.90 1015.62 1015.26 1014.86 1014.46 1014.09 1013.76 1013.50 1013.26 1013.04 1012.80 1012.49 1012.12 1011.66 1011.14 1010.59 1010.05 1009.58
1018.82 1019.22 1019.51 1019.63 1019.56 1019.28 1018.81 1018.20 1017.53 1016.88 1016.33 1015.94 1015.74 1015.71 1015.83 1016.04 1016.26 1016.43 1016.52 1016.51 1016.40 1016.22 1016.02 1015.84 1015.71 1015.66 1015.67 1015.72 1015.78 1015.80 1015.75 1015.62 1015.39 1015.09 1014.74 1014.38 1014.03 1013.72 1013.44 1013.19 1012.94 1012.67 1012.34 1011.93 1011.44 1010.88 1010.29 1009.70 1009.17
1018.68 1019.05 1019.30 1019.39 1019.29 1018.99 1018.52 1017.92 1017.26 1016.62 1016.09 1015.70 1015.49 1015.44 1015.54 1015.72 1015.92 1016.09 1016.18 1016.16 1016.06 1015.90 1015.70 1015.52 1015.39 1015.32 1015.32 1015.37 1015.43 1015.46 1015.45 1015.36 1015.19 1014.95 1014.66 1014.34 1014.01 1013.70 1013.42 1013.14 1012.86 1012.54 1012.17 1011.73 1011.22 1010.64 1010.02 1009.40 1008.83
Thickness
5817 5817 5815 5806 5793 5787 5774 5776 5785 5783 5787 5793 5795 5791 5784 5778 5770 5763 5778 5788 5789 5788 5784 5778 5776 5774 5773 5772 5771 5770 5769 5769 5768 5767 5766 5765 5764 5763 5762 5762 5761 5761 5761 5761 5761 5761 5762 5762 5762
5821 5817 5809 5801 5789 5773 5768 5777 5778 5781 5788 5795 5794 5791 5785 5778 5779 5777 5779 5782 5785 5785 5782 5779 5773 5772 5771 5770 5769 5768 5767 5767 5766 5765 5764 5764 5763 5762 5761 5760 5760 5760 5759 5759 5759 5759 5759 5759 5760
5821 5817 5804 5797 5783 5772 5767 5776 5781 5786 5792 5792 5788 5786 5778 5767 5772 5773 5776 5780 5782 5781 5778 5774 5770 5769 5768 5767 5766 5765 5765 5764 5764 5764 5763 5762 5762 5761 5760 5759 5759 5759 5758 5758 5757 5757 5757 5757 5757
5818 5809 5805 5791 5775 5776 5776 5779 5785 5784 5786 5788 5786 5776 5771 5766 5767 5771 5775 5778 5778 5776 5773 5770 5766 5765 5764 5763 5763 5762 5762 5762 5762 5761 5761 5761 5760 5760 5759 5759 5758 5758 5757 5757 5756 5756 5756 5755 5755
5816 5805 5791 5778 5776 5777 5781 5783 5786 5780 5778 5780 5782 5769 5761 5764 5768 5770 5771 5772 5771 5770 5767 5765 5761 5759 5759 5759 5759 5759 5759 5759 5759 5759 5759 5759 5759 5759 5758 5758 5757 5757 5756 5756 5755 5755 5754 5754 5754
5807 5802 5783 5770 5772 5775 5777 5781 5782 5778 5775 5775 5774 5765 5754 5761 5762 5763 5765 5764 5764 5762 5760 5758 5756 5755 5755 5754 5754 5755 5755 5755 5756 5756 5756 5756 5756 5756 5757 5756 5756 5756 5756 5755 5755 5754 5753 5753 5753
5801 5794 5781 5777 5771 5770 5773 5779 5776 5772 5768 5766 5770 5759 5753 5756 5758 5759 5759 5757 5756 5755 5753 5751 5751 5751 5750 5750 5750 5751 5751 5751 5752 5752 5753 5753 5753 5753 5754 5755 5755 5755 5754 5754 5754 5753 5753 5752 5752
5807 5795 5779 5776 5770 5767 5773 5775 5772 5769 5762 5766 5766 5753 5744 5749 5754 5754 5753 5752 5750 5749 5747 5746 5745 5745 5745 5746 5745 5746 5747 5747 5748 5749 5749 5749 5750 5751 5751 5753 5753 5753 5753 5753 5753 5753 5752 5752 5752
5806 5788 5774 5774 5771 5768 5771 5768 5766 5767 5761 5758 5756 5750 5746 5748 5749 5747 5745 5744 5743 5742 5741 5740 5739 5739 5739 5740 5740 5741 5742 5742 5743 5745 5746 5746 5748 5749 5750 5752 5752 5752 5752 5752 5752 5752 5752 5752 5752
5797 5779 5774 5776 5778 5771 5767 5764 5760 5756 5749 5745 5744 5743 5744 5743 5741 5738 5735 5733 5733 5732 5734 5734 5733 5733 5734 5735 5735 5736 5737 5738 5739 5741 5742 5743 5745 5746 5747 5749 5749 5750 5750 5751 5751 5751 5751 5752 5756
5790 5777 5774 5773 5774 5771 5762 5757 5757 5750 5739 5738 5735 5734 5735 5733 5732 5729 5727 5725 5724 5725 5724 5726 5726 5727 5727 5728 5729 5730 5730 5732 5734 5735 5737 5738 5741 5743 5744 5746 5747 5748 5749 5751 5752 5751 5753 5755 5758
5781 5773 5774 5769 5767 5763 5758 5753 5747 5743 5737 5738 5735 5731 5728 5724 5722 5720 5718 5717 5716 5715 5714 5716 5717 5719 5719 5720 5721 5723 5725 5727 5729 5729 5731 5733 5736 5738 5741 5743 5744 5746 5747 5750 5751 5751 5754 5755 5758
5776 5766 5765 5764 5760 5758 5753 5746 5740 5733 5733 5733 5728 5723 5719 5717 5714 5713 5712 5710 5709 5707 5707 5707 5708 5709 5710 5710 5711 5716 5718 5720 5723 5723 5726 5728 5731 5734 5737 5739 5741 5743 5745 5747 5748 5750 5752 5754 5756
5772 5765 5760 5758 5755 5752 5744 5738 5734 5727 5728 5724 5720 5716 5713 5709 5707 5706 5705 5702 5702 5700 5700 5699 5699 5700 5700 5702 5705 5707 5710 5712 5715 5717 5720 5722 5725 5728 5731 5734 5736 5739 5741 5743 5745 5747 5749 5750 5752
5769 5757 5751 5750 5750 5746 5741 5729 5728 5726 5724 5717 5714 5711 5707 5704 5703 5700 5698 5697 5695 5694 5694 5692 5691 5692 5692 5693 5695 5698 5701 5704 5707 5710 5712 5715 5718 5721 5725 5729 5732 5734 5736 5739 5741 5744 5745 5747 5749
5763 5753 5743 5744 5744 5740 5732 5725 5725 5724 5719 5713 5710 5707 5702 5700 5700 5698 5695 5693 5691 5689 5687 5686 5685 5684 5684 5685 5686 5690 5693 5696 5699 5702 5704 5708 5711 5714 5718 5722 5726 5728 5731 5734 5737 5739 5740 5742 5744
5752 5746 5744 5739 5742 5737 5730 5725 5722 5721 5715 5710 5707 5704 5701 5699 5697 5695 5692 5690 5687 5685 5683 5681 5679 5677 5678 5678 5680 5682 5685 5687 5691 5694 5696 5699 5703 5707 5711 5715 5719 5721 5724 5728 5732 5734 5735 5736 5738
5748 5748 5744 5738 5737 5732 5725 5724 5721 5718 5713 5710 5706 5704 5700 5698 5694 5692 5689 5686 5684 5682 5680 5677 5674 5673 5672 5673 5674 5676 5678 5681 5683 5686 5687 5690 5694 5698 5703 5707 5712 5715 5718 5721 5724 5728 5730 5732 5733
5755 5747 5740 5734 5732 5726 5723 5722 5720 5717 5711 5707 5705 5703 5700 5697 5695 5692 5688 5685 5682 5679 5676 5673 5670 5669 5667 5666 5666 5667 5670 5673 5676 5678 5679 5682 5685 5689 5694 5699 5704 5707 5711 5714 5718 5721 5724 5726 5728
5748 5740 5733 5726 5725 5723 5721 5721 5723 5717 5712 5709 5706 5703 5700 5696 5694 5690 5687 5684 5680 5676 5673 5671 5668 5666 5663 5660 5661 5662 5663 5667 5669 5671 5673 5675 5678 5682 5687 5691 5695 5699 5702 5706 5711 5714 5716 5719 5722
5738 5734 5730 5723 5718 5719 5715 5718 5720 5719 5714 5710 5706 5703 5701 5695 5692 5689 5686 5682 5679 5675 5672 5669 5665 5663 5661 5658 5658 5658 5659 5662 5664 5665 5666 5669 5672 5675 5678 5683 5687 5691 5696 5700 5704 5707 5710 5712 5716
5728 5729 5725 5718 5715 5716 5710 5708 5721 5719 5712 5709 5707 5705 5701 5696 5692 5688 5685 5682 5679 5675 5672 5669 5665 5662 5659 5657 5656 5654 5653 5654 5656 5658 5661 5663 5666 5669 5672 5676 5680 5684 5689 5693 5698 5702 5705 5707 5709
5727 5727 5723 5719 5716 5713 5713 5707 5721 5716 5712 5713 5711 5707 5703 5698 5694 5689 5686 5682 5679 5676 5671 5668 5664 5661 5658 5656 5653 5652 5652 5652 5654 5655 5656 5659 5661 5664 5666 5669 5673 5677 5682 5687 5691 5696 5699 5702 5705
5726 5722 5718 5717 5716 5706 5712 5707 5712 5720 5717 5714 5712 5709 5704 5700 5696 5691 5688 5684 5680 5677 5672 5668 5664 5661 5658 5655 5654 5652 5650 5649 5650 5650 5651 5653 5657 5659 5661 5663 5667 5671 5676 5680 5684 5688 5693 5696 5699
5725 5718 5710 5708 5707 5710 5711 5705 5715 5725 5722 5717 5713 5710 5707 5702 5698 5693 5689 5685 5681 5677 5673 5670 5665 5662 5659 5657 5655 5653 5650 5649 5649 5648 5648 5648 5651 5652 5655 5658 5662 5665 5669 5673 5678 5682 5686 5690 5693
5723 5721 5709 5703 5706 5712 5708 5708 5725 5726 5723 5719 5715 5711 5707 5703 5700 5695 5691 5687 5683 5679 5675 5671 5667 5664 5660 5658 5656 5654 5652 5650 5649 5647 5646 5646 5646 5647 5650 5653 5656 5660 5663 5667 5671 5675 5680 5684 5687
5719 5719 5721 5714 5710 5706 5717 5720 5727 5725 5722 5718 5715 5711 5707 5705 5701 5698 5694 5691 5687 5683 5679 5674 5670 5667 5663 5660 5657 5655 5652 5650 5648 5647 5647 5646 5645 5645 5646 5649 5652 5655 5657 5660 5664 5668 5673 5677 5680
5725 5721 5715 5711 5703 5707 5712 5715 5720 5724 5723 5721 5717 5714 5711 5708 5705 5701 5698 5694 5691 5688 5683 5679 5674 5669 5665 5662 5659 5655 5652 5650 5648 5646 5645 5643 5643 5642 5643 5645 5648 5650 5652 5654 5657 5661 5665 5670 5674
5713 5712 5713 5713 5709 5705 5704 5717 5732 5728 5727 5724 5723 5720 5716 5712 5708 5705 5702 5699 5695 5691 5687 5683 5678 5673 5668 5665 5661 5657 5654 5650 5648 5646 5643 5642 5641 5641 5641 5642 5644 5645 5647 5649 5651 5654 5658 5662 5666
5721 5720 5716 5710 5709 5706 5704 5718 5737 5732 5730 5727 5725 5724 5721 5716 5712 5709 5705 5702 5698 5695 5691 5687 5683 5677 5672 5667 5663 5659 5655 5652 5650 5647 5644 5642 5641 5639 5639 5639 5640 5640 5641 5643 5645 5646 5650 5654 5658